Land O' Lakes, WI

12:12 PM CDT on August 31, 2016 (GMT -0500)
Kings Land O'Lakes

Weather History for KLNL - July, 2013

Change the Weather History Date:

Thursday, July 11, 2013

  Actual Average (KEGV) Record (KEGV)
Temperature  
Mean Temperature 63 °F -  
Max Temperature 80 °F 77 °F 86 °F (1980)
Min Temperature 46 °F 53 °F 42 °F (1999)
Degree Days  
Heating Degree Days 2    
Growing Degree Days 13 (Base 50)    
Moisture  
Dew Point 50 °F    
Average Humidity 67    
Maximum Humidity 99    
Minimum Humidity 33    
Precipitation  
Precipitation 0.00 in - - ()
Sea Level Pressure  
Sea Level Pressure 30.11 in    
Wind  
Wind Speed 1 mph (SSW)    
Max Wind Speed 8 mph    
Max Gust Speed -    
Visibility 9 miles    
Events      
Averages and records for this station are not official NWS values.
T = Trace of Precipitation, MM = Missing Value Source: NWS Daily Summary

Daily Weather History Graph

Daily Weather History Graph

Search for Another Location

Airport or City:

Trip Planner

Search our weather history database for the weather conditions in past years. The results will help you decide how hot, cold, wet, or windy it might be!

Date:

Astronomy

Jul. 11, 2013 Rise Set
Actual Time 5:16 AM CDT 8:47 PM CDT
Civil Twilight 4:39 AM CDT 9:24 PM CDT
Nautical Twilight 3:49 AM CDT 10:14 PM CDT
Astronomical Twilight 2:43 AM CDT 11:19 PM CDT
Moon 8:49 AM CDT (7/11) 10:12 PM CDT (7/11)
Length of Visible Light 16h 45m
Length of Day
15h 30m
Waxing Crescent, 11% of the Moon is Illuminated
Jul 11
Waxing Crescent
Jul 15
First Quarter
Jul 22
Full
Jul 29
Last Quarter
Aug 6
New

Hourly Weather History & Observations

Time (CDT) Temp. Dew Point Humidity Pressure Visibility Wind Dir Wind Speed Gust Speed Precip Events Conditions
12:15 AM 50.4 °F 49.6 °F 97% 30.05 in 7.0 mi Calm Calm - N/A   Clear
12:35 AM 50.9 °F 50.4 °F 98% 30.05 in 5.0 mi Calm Calm - N/A   Clear
12:55 AM 51.1 °F 50.5 °F 98% 30.06 in 7.0 mi Calm Calm - N/A   Clear
1:15 AM 51.8 °F 51.3 °F 98% 30.06 in 7.0 mi Calm Calm - N/A   Clear
1:35 AM 51.3 °F 50.9 °F 99% 30.06 in 7.0 mi Calm Calm - N/A   Clear
1:55 AM 51.6 °F 51.1 °F 98% 30.06 in 7.0 mi Calm Calm - N/A   Clear
2:15 AM 50.5 °F 49.8 °F 97% 30.07 in 7.0 mi Calm Calm - N/A   Clear
2:35 AM 50.2 °F 49.6 °F 98% 30.07 in 7.0 mi Calm Calm - N/A   Clear
2:55 AM 49.6 °F 49.1 °F 98% 30.08 in 4.0 mi Calm Calm - N/A   Clear
3:15 AM 49.5 °F 49.1 °F 99% 30.09 in 2.0 mi Calm Calm - N/A   Clear
3:35 AM 49.3 °F 48.7 °F 98% 30.09 in 5.0 mi Calm Calm - N/A   Clear
3:55 AM 48.7 °F 48.4 °F 99% 30.10 in 4.0 mi Calm Calm - N/A   Clear
4:15 AM 48.6 °F 48.2 °F 99% 30.10 in 4.0 mi Calm Calm - N/A   Clear
4:35 AM 47.5 °F 47.1 °F 99% 30.11 in 3.0 mi Calm Calm - N/A   Clear
4:55 AM 47.5 °F 47.1 °F 99% 30.11 in 4.0 mi Calm Calm - N/A   Clear
5:15 AM 46.6 °F 46.0 °F 98% 30.12 in 2.5 mi Calm Calm - N/A   Clear
5:35 AM 46.6 °F 46.2 °F 99% 30.12 in 3.0 mi Calm Calm - N/A   Clear
5:55 AM 47.1 °F 46.8 °F 99% 30.12 in 4.0 mi Calm Calm - N/A   Clear
6:15 AM 48.9 °F 48.6 °F 99% 30.13 in 10.0 mi Calm Calm - N/A   Clear
6:35 AM 51.4 °F 51.1 °F 99% 30.13 in 10.0 mi Calm Calm - N/A   Clear
6:55 AM 54.1 °F 53.6 °F 98% 30.13 in 10.0 mi Calm Calm - N/A   Clear
7:15 AM 57.0 °F 55.8 °F 96% 30.14 in 10.0 mi Calm Calm - N/A   Clear
7:35 AM 59.7 °F 56.5 °F 89% 30.15 in 10.0 mi Calm Calm - N/A   Clear
7:55 AM 61.2 °F 55.8 °F 82% 30.15 in 10.0 mi Calm Calm - N/A   Clear
8:15 AM 63.7 °F 55.0 °F 73% 30.15 in 10.0 mi Calm Calm - N/A   Clear
8:35 AM 65.5 °F 54.5 °F 68% 30.15 in 10.0 mi Calm Calm - N/A   Clear
8:55 AM 66.9 °F 54.1 °F 63% 30.15 in 10.0 mi South 3.5 mph - N/A   Clear
9:15 AM 68.9 °F 53.6 °F 58% 30.15 in 10.0 mi Calm Calm - N/A   Clear
9:35 AM 70.0 °F 54.9 °F 59% 30.15 in 10.0 mi South 3.5 mph - N/A   Clear
9:55 AM 71.2 °F 54.1 °F 55% 30.15 in 10.0 mi Calm Calm - N/A   Clear
10:15 AM 72.3 °F 53.8 °F 52% 30.15 in 10.0 mi Calm Calm - N/A   Clear
10:35 AM 72.7 °F 52.5 °F 49% 30.15 in 10.0 mi Calm Calm - N/A   Clear
10:55 AM 74.3 °F 50.2 °F 43% 30.15 in 10.0 mi Calm Calm - N/A   Scattered Clouds
11:15 AM 74.5 °F 45.5 °F 36% 30.15 in 10.0 mi NNW 3.5 mph - N/A   Clear
11:35 AM 74.8 °F 46.4 °F 36% 30.15 in 10.0 mi Calm Calm - N/A   Clear
11:55 AM 75.6 °F 46.0 °F 35% 30.15 in 10.0 mi Calm Calm - N/A   Clear
12:15 PM 76.3 °F 46.4 °F 35% 30.15 in 10.0 mi SW 3.5 mph - N/A   Scattered Clouds
12:35 PM 76.1 °F 45.7 °F 34% 30.15 in 10.0 mi East 3.5 mph - N/A   Scattered Clouds
12:55 PM 76.5 °F 48.7 °F 38% 30.14 in 10.0 mi West 3.5 mph - N/A   Scattered Clouds
1:15 PM 77.2 °F 46.4 °F 34% 30.14 in 10.0 mi East 3.5 mph - N/A   Clear
1:35 PM 78.1 °F 46.9 °F 33% 30.13 in 10.0 mi Calm Calm - N/A   Clear
1:55 PM 77.9 °F 46.9 °F 33% 30.13 in 10.0 mi ESE 3.5 mph - N/A   Scattered Clouds
2:15 PM 78.3 °F 47.3 °F 34% 30.12 in 10.0 mi SE 3.5 mph - N/A   Scattered Clouds
2:55 PM 79.2 °F 47.8 °F 33% 30.12 in 10.0 mi SSW 5.8 mph - N/A   Clear
3:15 PM 77.0 °F 46.8 °F 34% 30.12 in 10.0 mi Calm Calm - N/A   Scattered Clouds
3:35 PM 78.8 °F 47.8 °F 34% 30.11 in 10.0 mi Calm Calm - N/A   Mostly Cloudy
3:55 PM 79.7 °F 48.2 °F 33% 30.11 in 10.0 mi West 5.8 mph - N/A   Scattered Clouds
4:15 PM 80.2 °F 48.7 °F 33% 30.10 in 10.0 mi South 6.9 mph - N/A   Clear
4:35 PM 79.3 °F 47.8 °F 33% 30.10 in 10.0 mi South 5.8 mph - N/A   Scattered Clouds
4:55 PM 79.7 °F 48.4 °F 33% 30.10 in 10.0 mi SW 3.5 mph - N/A   Scattered Clouds
5:15 PM 79.7 °F 47.8 °F 33% 30.09 in 10.0 mi South 5.8 mph - N/A   Scattered Clouds
5:35 PM 79.7 °F 48.0 °F 33% 30.09 in 10.0 mi SW 8.1 mph - N/A   Mostly Cloudy
5:55 PM 79.0 °F 50.2 °F 36% 30.09 in 10.0 mi SSW 5.8 mph - N/A   Scattered Clouds
6:15 PM 78.8 °F 50.5 °F 37% 30.08 in 10.0 mi Calm Calm - N/A   Scattered Clouds
6:35 PM 78.1 °F 49.6 °F 37% 30.09 in 10.0 mi SW 5.8 mph - N/A   Scattered Clouds
6:55 PM 77.2 °F 48.6 °F 36% 30.09 in 10.0 mi WSW 6.9 mph - N/A   Clear
7:15 PM 76.3 °F 49.3 °F 39% 30.09 in 10.0 mi WSW 4.6 mph - N/A   Clear
7:35 PM 75.0 °F 50.2 °F 42% 30.08 in 10.0 mi SW 3.5 mph - N/A   Clear
7:55 PM 73.6 °F 51.6 °F 46% 30.08 in 10.0 mi Calm Calm - N/A   Clear
8:15 PM 68.5 °F 56.7 °F 66% 30.07 in 10.0 mi Calm Calm - N/A   Clear
8:35 PM 65.5 °F 56.5 °F 73% 30.07 in 10.0 mi Calm Calm - N/A   Clear
8:55 PM 63.3 °F 55.9 °F 77% 30.07 in 10.0 mi SSW 3.5 mph - N/A   Clear
9:15 PM 63.9 °F 54.3 °F 71% 30.08 in 10.0 mi Calm Calm - N/A   Clear
9:35 PM 62.2 °F 54.0 °F 74% 30.08 in 10.0 mi SSW 3.5 mph - N/A   Clear
9:55 PM 60.4 °F 54.1 °F 80% 30.09 in 10.0 mi Calm Calm - N/A   Clear
10:15 PM 59.2 °F 53.8 °F 82% 30.09 in 10.0 mi Calm Calm - N/A   Clear
10:35 PM 58.3 °F 54.1 °F 86% 30.10 in 10.0 mi Calm Calm - N/A   Clear
10:55 PM 56.7 °F 54.5 °F 92% 30.10 in 10.0 mi Calm Calm - N/A   Clear
11:15 PM 55.8 °F 53.8 °F 93% 30.10 in 10.0 mi Calm Calm - N/A   Clear
11:35 PM 55.4 °F 53.2 °F 92% 30.10 in 10.0 mi Calm Calm - N/A   Clear
11:55 PM 54.5 °F 52.9 °F 94% 30.10 in 10.0 mi Calm Calm - N/A   Clear